User: anonymous   Login
Location: Unspecified
(0.0000°N, 0.0000°E)
Time: 03:12:15
(UTC+00:00)
Language:

PRSC-S1 - Orbit

View from above orbital plane
View from above orbital plane
View from above satellite
View from above satellite

Ground track
Ground track

The orbit is defined by the following mean orbital elements,

1 65055U          26145.58866964 +.00000000 +00000-0 +31184-3 0 00004
2 65055  41.1310  55.0629 0006723 214.1075 145.9307 15.06211062    01
Epoch (UTC): 25 May 2026 14:07:41
Eccentricity: 0.0006723
inclination: 41.1310°
perigee height: 543 km
apogee height: 552 km
right ascension of ascending node: 55.0629°
argument of perigee: 214.1075°
revolutions per day: 15.06211062
mean anomaly at epoch: 145.9307°

The dashed part of the orbit path shows where the satellite is in the earth's shadow,  

DLR